Find VIASAT 3-F3

NORAD ID: 68893 Int'l Des: 2026-096A Owner: VIA Country: US operational
MEOELLIPTICAL

Current View

Loading 3D Globe...

About VIASAT 3-F3

VIASAT 3-F3 (NORAD 68893) is a satellite launched Apr 29, 2026 by VIA of US. It operates in MEO, ELLIPTICAL orbit with a mass of 6500.00 kg.

Upcoming Passes

Passes for default location (London). Set your location on the main map for personalized predictions.

Altitude History

Loading altitude history...

Two-Line Element Set

1 68893U 26096A 26169.46183269 -.00000091 00000-0 00000-0 0 9991
2 68893 1.1130 279.4754 0561038 182.4101 308.9788 1.07155659 620
Epoch: Jun 18, 2026 • Age: 45 hours

Current Status

Altitude 32385.9 km
Velocity 3.27 km/s
Sub-Earth Point 0.81°N, 19.94°E
Launch Date Apr 29, 2026
Age 0.1 years
Type other

Technical Details

Classification Payload
Mass 6500.00 kg
Dry Mass 3500.00 kg
Total Mass 6500.00 kg
Length 7.00 m
Diameter 3.00 m
Span 44.00 m
Shape Box + 2 pan
Manufacturer BOES
Bus Type BSS-702MP+
Phase Status In Orbit
Owner/State VIA/US

Most Searched